[[{"header":{"parameterUnit":"m.s-1","parameterCategory":1,"la1":30.2991,"la2":30.254,"lo1":-89.0895,"lo2":-89.0444,"dy":0.0017,"dx":0.0017,"nx":28,"ny":28,"refTime":"2025-07-22T21:00:00:Z","depth":0,"parameterNumber":2,"parameterNumberName":"U-component_of_WINDS"},"data":[0,0,0,0,0,0,0,0,0,0,0,0,0,0,0,0,0,0,0,0,0,0,0,0,0,0,0,0,0,0,0,0,0,0,0,0,0,0,0,0,0,0,0,0,0,0,0,0,0,0,0,0,0,0,0,0,0,0,2.2676,2.2678,0,2.2881,2.2883,2.2885,2.2849,2.2845,2.2842,2.2838,2.3044,2.3053,2.3062,0,0,0,0,0,0,0,0,0,0,0,0,0,2.225,2.2258,2.2676,2.2678,2.2681,2.288,2.2883,2.2886,2.285,2.2845,2.2841,2.2837,2.3041,2.3052,2.3063,0,0,0,0,0,0,0,0,0,0,0,0,0,2.2443,2.2261,2.2675,2.2687,2.269,2.288,2.2883,2.2887,2.2851,2.2845,2.284,2.2835,2.3038,2.3051,2.3064,2.3254,0,0,2.3105,2.311,0,0,0,0,0,0,0,0,2.2432,2.2459,2.2682,2.2686,2.269,2.2834,2.2809,2.301,2.2852,2.2789,2.2838,2.2832,2.2978,2.2996,2.3047,2.3264,2.3273,2.3106,2.3114,2.3119,2.3123,0,0,0,0,0,0,0,2.2419,2.245,2.2757,2.2686,2.269,2.2681,2.2702,2.2847,2.2912,2.2794,2.2792,2.2817,2.2979,2.3034,2.3051,2.3276,2.3105,2.3117,2.3125,2.3131,2.366,2.3666,0,0,0,0,0,0,2.2402,2.2439,2.275,2.2763,2.2545,2.2693,2.2717,2.2793,2.291,2.2923,2.2822,2.2815,2.3014,2.3036,2.3058,2.329,2.3119,2.3132,2.3139,2.3654,2.3662,2.3668,0,0,0,0,0,0,2.2393,2.2431,2.2742,2.2601,2.2639,2.2706,2.2792,2.28,2.2854,2.2931,2.2942,2.2866,2.301,2.3039,2.3206,2.3296,2.3138,2.315,2.3647,2.3657,2.3665,2.3754,0,0,0,0,0,0,2.2381,2.2428,2.2501,2.2602,2.2647,2.2888,2.2797,2.2808,2.2878,2.2871,2.2975,2.2987,2.3008,2.3187,2.322,2.3312,2.316,2.3639,2.3651,2.3662,2.3743,2.3765,2.3783,0,0,0,0,0,2.2366,2.2517,2.2505,2.2543,2.2741,2.2893,2.2919,2.2942,2.2885,2.296,2.3009,2.2983,2.3281,2.3204,2.3241,2.3338,2.3634,2.3648,2.3661,2.3734,2.3761,2.3783,0,0,0,0,0,0,2.2422,2.253,2.2518,2.2706,2.2791,2.2887,2.2981,2.2969,2.307,2.3059,2.3082,2.3106,2.3276,2.3323,2.3236,2.3529,2.3449,2.3471,2.3492,2.3518,2.3538,2.3523,2.3171,0,0,0,0,0,2.2457,2.2573,2.266,2.2817,2.2861,2.2914,2.2981,2.2992,2.308,2.3115,2.3176,2.3262,2.3375,2.3449,2.3557,2.3749,2.3772,2.3835,2.3855,2.3871,2.389,2.3996,2.4025,2.3714,2.3714,2.3713,0,0,2.2529,2.2602,2.2673,2.283,2.2897,2.3017,2.2944,2.3073,2.3161,2.3134,2.3297,2.3345,2.3441,2.3623,2.3705,2.3667,2.398,2.3888,2.3901,2.3911,2.4013,2.4042,2.4069,2.3723,2.3721,2.372,0,0,2.2721,2.2788,2.2927,2.2996,2.3099,2.3134,2.3167,2.3266,2.3297,2.3461,2.3443,2.3548,2.3742,2.3812,2.3873,2.4094,2.4075,2.4128,2.4234,2.4337,2.4362,2.4383,2.4463,2.4491,2.4146,2.4147,2.4147,0,2.2797,2.2977,2.3,2.3131,2.3201,2.3184,2.3325,2.339,2.3523,2.3571,2.3527,2.3771,2.3835,2.4033,2.4087,2.4137,2.4176,2.4117,2.4356,2.4379,2.4399,2.4475,2.4505,2.4152,2.4152,2.4151,2.4151,0,2.3066,2.3191,2.3291,2.3422,2.3502,2.3638,2.3681,2.376,2.3764,2.3803,2.3969,2.4046,2.417,2.4217,2.4221,2.4416,2.439,2.4351,2.4271,2.4435,2.4506,2.4536,2.4161,2.4159,2.4157,2.4156,0,0,2.3299,2.3442,2.3478,2.3538,2.3651,2.3748,2.3882,2.4005,2.4073,2.4165,2.4278,2.4444,2.4409,2.4479,2.449,2.4581,2.4752,2.4531,2.4534,2.457,2.4972,2.5002,2.5035,2.474,2.4745,2.475,2.4965,0,2.3503,2.3742,2.3767,2.3981,2.4097,2.4083,2.4201,2.4282,2.4323,2.4426,2.4469,2.4587,2.4532,2.4574,2.4663,2.4712,2.4833,2.4697,2.4845,2.485,2.4823,2.5072,2.5104,2.5302,2.4993,2.4997,2.5001,0,2.3772,2.3875,2.4101,2.4199,2.4249,2.4354,2.4469,2.4569,2.4661,2.4684,2.4763,2.4763,2.4901,2.4816,2.5006,2.4913,2.4975,2.5009,2.5017,2.5032,2.4936,2.5095,2.5366,2.5397,2.5045,2.5042,2.5038,0,2.3921,2.4115,2.4276,2.4327,2.4446,2.452,2.4573,2.466,2.4733,2.4833,2.488,2.4994,2.5057,2.5145,2.5176,2.5111,2.5365,2.5282,2.5388,2.5387,2.5442,2.5439,2.5728,2.5481,2.5481,2.548,2.5479,0,2.4147,2.4286,2.4345,2.4443,2.4599,2.4626,2.4779,2.4827,2.4906,2.5013,2.5007,2.5108,2.5142,2.5248,2.5273,2.5427,2.5455,2.5477,2.5482,2.5479,2.5476,2.552,2.5507,2.5488,2.5486,2.5485,2.5483,0,2.4339,2.4384,2.4559,2.4657,2.4685,2.4796,2.488,2.4975,2.5014,2.515,2.5184,2.5245,2.537,2.5409,2.5559,2.5576,2.5757,2.5749,2.5726,2.5727,2.5831,2.5821,2.6159,2.6205,2.5927,2.593,2.5932,0,2.448,2.4587,2.4698,2.4771,2.4827,2.4944,2.5019,2.5049,2.5127,2.5242,2.5323,2.5447,2.5549,2.5749,2.5806,2.592,2.5916,2.6026,2.5933,2.5926,2.5919,2.5912,2.5923,2.6044,2.6047,2.6049,2.6051,0,2.4727,2.4744,2.4853,2.4971,2.5061,2.5154,2.5244,2.5304,2.5347,2.5435,2.5564,2.5643,2.5798,2.5921,2.6039,2.6091,2.6079,2.608,2.6111,2.6109,2.6092,2.6103,2.5775,2.6073,2.607,2.6069,2.6068,2.6067,2.4899,2.4994,2.5088,2.5209,2.5281,2.5366,2.5461,2.5513,2.5621,2.5751,2.5762,2.5902,2.5991,2.6148,2.6207,2.6315,2.6283,2.6327,2.6339,2.6349,2.6358,2.6074,2.6336,2.6336,2.6335,2.6335,2.6334,0,2.5146,2.5206,2.5318,2.5445,2.5541,2.5523,2.5622,2.5703,2.5827,2.5913,2.6013,2.6162,2.6282,2.6349,2.6468,2.6542,2.654,2.6573,2.6568,2.658,2.638,2.6342,2.6573,2.6573,2.6573,2.6573,2.6573,2.6573,2.5286,2.5446,2.5475,2.5671,2.5729,2.5868,2.5926,2.6004,2.6073,2.624,2.6341,2.6384,2.6462,2.6588,2.6697,2.6713,2.6757,2.6794,2.6807,2.6619,2.6594,2.6571,2.6535,2.6804,2.6804,2.6999,2.7001,2.7002]},{"header":{"parameterUnit":"m.s-1","parameterCategory":1,"la1":30.2991,"la2":30.254,"lo1":-89.0895,"lo2":-89.0444,"dy":0.0017,"dx":0.0017,"nx":28,"ny":28,"refTime":"2025-07-22T21:00:00:Z","depth":0,"parameterNumber":3,"parameterNumberName":"V-component_of_WINDS"},"data":[0,0,0,0,0,0,0,0,0,0,0,0,0,0,0,0,0,0,0,0,0,0,0,0,0,0,0,0,0,0,0,0,0,0,0,0,0,0,0,0,0,0,0,0,0,0,0,0,0,0,0,0,0,0,0,0,0,0,0.4728,0.4731,0,0.5011,0.5014,0.5017,0.5138,0.5138,0.5137,0.5137,0.5438,0.5446,0.5455,0,0,0,0,0,0,0,0,0,0,0,0,0,0.4307,0.4314,0.4728,0.4732,0.4735,0.501,0.5014,0.5018,0.5138,0.5138,0.5137,0.5136,0.5435,0.5445,0.5456,0,0,0,0,0,0,0,0,0,0,0,0,0,0.453,0.4316,0.4728,0.4828,0.484,0.501,0.5014,0.5019,0.5138,0.5138,0.5137,0.5136,0.5432,0.5444,0.5457,0.5552,0,0,0.5496,0.5502,0,0,0,0,0,0,0,0,0.4517,0.4545,0.481,0.4821,0.4835,0.5038,0.4977,0.5198,0.5139,0.5025,0.5137,0.5136,0.5307,0.533,0.5385,0.5566,0.5579,0.5497,0.5505,0.551,0.5514,0,0,0,0,0,0,0,0.4502,0.4534,0.484,0.4813,0.4829,0.4864,0.4895,0.5019,0.5167,0.5035,0.5044,0.5076,0.5313,0.5372,0.5393,0.5583,0.5497,0.5508,0.5516,0.5521,0.5862,0.5863,0,0,0,0,0,0,0.4468,0.452,0.4832,0.4849,0.467,0.4872,0.4906,0.4974,0.5166,0.5195,0.5076,0.508,0.5351,0.5378,0.5404,0.553,0.551,0.5522,0.553,0.5861,0.5862,0.5864,0,0,0,0,0,0,0.4458,0.4494,0.482,0.4687,0.4731,0.488,0.4955,0.498,0.5039,0.5197,0.5225,0.5108,0.5351,0.5386,0.5514,0.5542,0.5528,0.554,0.5859,0.5861,0.5863,0.578,0,0,0,0,0,0,0.4446,0.449,0.4524,0.4687,0.4738,0.4921,0.4957,0.4986,0.5059,0.5067,0.5234,0.5261,0.5353,0.5495,0.5527,0.5559,0.555,0.5857,0.586,0.5862,0.5781,0.5779,0.5778,0,0,0,0,0,0.443,0.4491,0.4525,0.4562,0.4782,0.4922,0.4952,0.5052,0.506,0.5098,0.5201,0.5256,0.5533,0.5507,0.5544,0.5581,0.5856,0.5859,0.5862,0.5782,0.578,0.5778,0,0,0,0,0,0,0.4331,0.4514,0.4554,0.4668,0.4778,0.4942,0.4992,0.5046,0.5159,0.5163,0.5287,0.5324,0.5443,0.5526,0.5492,0.5685,0.57,0.5711,0.5626,0.5625,0.5623,0.5601,0.556,0,0,0,0,0,0.4321,0.4415,0.4572,0.4659,0.4712,0.4842,0.4907,0.4975,0.5096,0.5144,0.5256,0.5375,0.549,0.5562,0.5676,0.5794,0.5835,0.5839,0.5837,0.5834,0.5842,0.5915,0.5919,0.5874,0.5874,0.5874,0,0,0.4305,0.4417,0.4469,0.4642,0.4735,0.4834,0.4881,0.4983,0.5059,0.5161,0.5288,0.5375,0.5517,0.5641,0.5701,0.5713,0.5864,0.5838,0.5835,0.5845,0.5919,0.5923,0.5927,0.5876,0.5876,0.5875,0,0,0.4324,0.4417,0.45,0.4592,0.4732,0.4819,0.4839,0.4996,0.5056,0.5185,0.5265,0.536,0.5553,0.5652,0.5727,0.5788,0.5844,0.5822,0.5812,0.5882,0.5885,0.5889,0.5913,0.592,0.5829,0.5829,0.5829,0,0.4287,0.4434,0.4537,0.4635,0.471,0.4805,0.4893,0.4979,0.5151,0.5203,0.5213,0.546,0.5562,0.5712,0.5726,0.5784,0.5814,0.5803,0.5875,0.5881,0.5886,0.591,0.5919,0.5826,0.5826,0.5826,0.5827,0,0.4382,0.4484,0.4535,0.4694,0.4777,0.4869,0.4991,0.5063,0.5125,0.5212,0.5346,0.5471,0.5613,0.5655,0.5717,0.5816,0.5819,0.585,0.5868,0.5885,0.591,0.592,0.582,0.5822,0.5823,0.5824,0,0,0.4345,0.4561,0.4578,0.4653,0.4816,0.4899,0.4999,0.5134,0.5194,0.5311,0.54,0.5563,0.5595,0.568,0.5756,0.5816,0.586,0.5842,0.5848,0.5842,0.598,0.5954,0.5963,0.5899,0.5901,0.5902,0.5968,0,0.4388,0.4564,0.4661,0.4799,0.4897,0.499,0.5078,0.519,0.5276,0.5375,0.5473,0.5586,0.5617,0.567,0.5734,0.584,0.5889,0.5837,0.5987,0.5991,0.5948,0.5976,0.595,0.6005,0.5978,0.598,0.5981,0,0.446,0.4571,0.4717,0.4871,0.4916,0.4992,0.5126,0.5219,0.5351,0.5409,0.5505,0.558,0.5695,0.5704,0.5865,0.5828,0.5896,0.5958,0.5963,0.5981,0.5987,0.5996,0.6025,0.6034,0.5998,0.5996,0.5995,0,0.442,0.4607,0.472,0.4781,0.4963,0.5015,0.5094,0.5224,0.5301,0.542,0.5472,0.5604,0.5677,0.578,0.5891,0.5887,0.6043,0.6061,0.6099,0.6096,0.6127,0.6124,0.6168,0.6169,0.6169,0.6169,0.6169,0,0.4457,0.4544,0.4704,0.4773,0.4875,0.4989,0.5088,0.5176,0.5291,0.5383,0.5474,0.556,0.57,0.5805,0.5894,0.6016,0.6048,0.6102,0.6125,0.6094,0.6087,0.6141,0.614,0.6171,0.6171,0.617,0.617,0,0.4429,0.4539,0.4669,0.483,0.4873,0.4941,0.5082,0.5156,0.5247,0.5363,0.5397,0.5541,0.5669,0.579,0.5963,0.6023,0.6146,0.6175,0.61,0.6112,0.6144,0.614,0.6225,0.6243,0.623,0.623,0.623,0,0.4446,0.4514,0.4683,0.4748,0.4825,0.493,0.5008,0.5125,0.5204,0.5361,0.5417,0.5551,0.5664,0.5866,0.5989,0.6123,0.6156,0.6177,0.6177,0.6145,0.6159,0.6154,0.6163,0.6175,0.6174,0.6174,0.6174,0,0.4464,0.4516,0.4622,0.4749,0.4838,0.4945,0.5055,0.5105,0.5245,0.533,0.5459,0.5547,0.5722,0.5856,0.6004,0.6092,0.6158,0.6172,0.6189,0.6159,0.6113,0.614,0.6095,0.617,0.617,0.6171,0.6171,0.6171,0.4461,0.4527,0.4656,0.4773,0.4867,0.4968,0.5046,0.5146,0.5255,0.5404,0.5468,0.5601,0.5736,0.5941,0.6028,0.6137,0.6152,0.6175,0.6181,0.6185,0.618,0.6094,0.6165,0.6165,0.6165,0.6166,0.6166,0,0.4486,0.4573,0.4679,0.4829,0.4922,0.4972,0.5098,0.5174,0.5287,0.5406,0.5515,0.5667,0.5798,0.5932,0.6072,0.6134,0.6168,0.6167,0.6164,0.6184,0.6158,0.613,0.6137,0.6137,0.6137,0.6137,0.6137,0.6137,0.451,0.4624,0.4692,0.4857,0.4946,0.5073,0.5141,0.5237,0.5332,0.5496,0.5603,0.5689,0.5816,0.5966,0.609,0.6127,0.6175,0.6166,0.6211,0.6184,0.6185,0.6187,0.6161,0.6175,0.6175,0.6229,0.6229,0.6229]}]]